[[[{"header":{"parameterUnit":"kt","parameterCategory":2,"dx":1,"dy":1,"la1":30.253999710083008,"la2":30.299108505249023,"lo1":-89.0895004272461,"lo2":-89.04439544677734,"nx":28,"ny":28,"refTime":"2022-09-27T15:00:00:Z","depth":0,"parameterNumber":1,"parameterNumberName":"U-component_of_WINDS"},"data":[-5.4074,-5.4233,-5.4243,-5.4429,-5.4469,-5.4598,-5.4647,-5.4712,-5.4765,-5.4919,-5.501,-5.5035,-5.5092,-5.5202,-5.53,-5.5309,-5.5352,-5.5401,-5.5404,-5.5175,-5.5144,-5.5115,-5.5079,-5.5409,-5.5409,-5.5642,-5.5644,-5.5646,-5.3904,-5.3946,-5.4046,-5.4151,-5.4238,-5.4196,-5.4275,-5.4351,-5.4467,-5.4534,-5.4623,-5.476,-5.4869,-5.491,-5.5017,-5.5091,-5.5079,-5.512,-5.5117,-5.5127,-5.4881,-5.4843,-5.5128,-5.5128,-5.5128,-5.5128,-5.5128,-5.5128,-5.3598,-5.3693,-5.3762,-5.3872,-5.3927,-5.3997,-5.4089,-5.4119,-5.4217,-5.433,-5.4321,-5.4453,-5.4522,-5.4655,-5.4702,-5.4805,-5.4761,-5.481,-5.4823,-5.4836,-5.4851,-5.4519,-5.4822,-5.4822,-5.4821,-5.482,-5.482,0,-5.3378,-5.338,-5.3478,-5.3579,-5.3659,-5.3738,-5.3812,-5.3869,-5.3876,-5.3957,-5.4076,-5.4146,-5.4283,-5.4397,-5.4498,-5.4538,-5.4506,-5.4502,-5.4536,-5.4545,-5.454,-5.4548,-5.4151,-5.4494,-5.4491,-5.4489,-5.4488,-5.4487,-5.3074,-5.3183,-5.326,-5.3327,-5.337,-5.3478,-5.3545,-5.3543,-5.3614,-5.3704,-5.3788,-5.39,-5.3991,-5.4179,-5.4213,-5.4316,-5.4303,-5.4433,-5.4318,-5.4321,-5.431,-5.4305,-5.4317,-5.4457,-5.4461,-5.4464,-5.4467,0,-5.2903,-5.2918,-5.309,-5.3155,-5.3175,-5.3289,-5.3345,-5.3439,-5.3457,-5.359,-5.362,-5.365,-5.3767,-5.378,-5.3915,-5.3919,-5.4109,-5.409,-5.4085,-5.4084,-5.4205,-5.4195,-5.4589,-5.4641,-5.4295,-5.4298,-5.43,0,-5.2652,-5.2794,-5.2809,-5.2908,-5.3066,-5.3061,-5.3218,-5.3249,-5.3309,-5.3413,-5.3376,-5.3475,-5.3476,-5.3577,-5.3582,-5.3738,-5.3763,-5.3776,-5.3777,-5.3783,-5.3782,-5.3824,-5.381,-5.3769,-5.3767,-5.3765,-5.3764,0,-5.2385,-5.2559,-5.2719,-5.2762,-5.2846,-5.2921,-5.296,-5.3026,-5.3092,-5.3178,-5.3221,-5.3322,-5.3379,-5.3457,-5.3464,-5.3386,-5.3654,-5.3548,-5.3669,-5.3669,-5.3732,-5.3729,-5.4069,-5.3761,-5.3761,-5.376,-5.3759,0,-5.2187,-5.2274,-5.2503,-5.2573,-5.2619,-5.2723,-5.2823,-5.2916,-5.2988,-5.2999,-5.3067,-5.3046,-5.3181,-5.3076,-5.3263,-5.316,-5.3218,-5.3242,-5.3251,-5.3269,-5.3152,-5.3348,-5.3667,-5.3703,-5.3278,-5.3274,-5.3271,0,-5.1879,-5.2113,-5.2111,-5.2328,-5.2439,-5.2392,-5.2508,-5.2574,-5.2597,-5.2694,-5.2719,-5.283,-5.2754,-5.2791,-5.2881,-5.2913,-5.3047,-5.2895,-5.3039,-5.3044,-5.3025,-5.3318,-5.3365,-5.3594,-5.3219,-5.3225,-5.3228,0,-5.1644,-5.1746,-5.1785,-5.1834,-5.192,-5.2012,-5.2144,-5.2253,-5.2318,-5.2395,-5.2508,-5.2662,-5.2612,-5.2673,-5.2667,-5.2761,-5.2956,-5.2695,-5.2697,-5.2745,-5.3193,-5.3237,-5.3276,-5.2931,-5.2937,-5.2942,-5.3188,0,-5.1347,-5.1466,-5.157,-5.1679,-5.1751,-5.1887,-5.1902,-5.1976,-5.1963,-5.1986,-5.215,-5.2208,-5.232,-5.2365,-5.2353,-5.2563,-5.2531,-5.2476,-5.2379,-5.2569,-5.2651,-5.2684,-5.2256,-5.2253,-5.2251,-5.2249,0,0,-5.1051,-5.1222,-5.1216,-5.1345,-5.1407,-5.1358,-5.1502,-5.1556,-5.1667,-5.1711,-5.1655,-5.1883,-5.1933,-5.2132,-5.2192,-5.2236,-5.2276,-5.2209,-5.2477,-5.2503,-5.2526,-5.2613,-5.2647,-5.2244,-5.2243,-5.2243,-5.2242,0,-5.0947,-5.0998,-5.114,-5.1195,-5.1277,-5.1294,-5.1328,-5.1401,-5.1422,-5.1582,-5.1542,-5.1642,-5.1824,-5.1883,-5.1938,-5.2184,-5.2149,-5.2216,-5.2345,-5.2453,-5.2481,-5.2507,-5.2598,-5.263,-5.2236,-5.2236,-5.2237,0,-5.0721,-5.0775,-5.0845,-5.0981,-5.1034,-5.1149,-5.1049,-5.1173,-5.1259,-5.12,-5.1361,-5.1396,-5.1476,-5.1661,-5.1744,-5.1697,-5.2034,-5.1929,-5.1944,-5.1955,-5.2061,-5.2095,-5.2125,-5.1724,-5.1722,-5.172,0,0,-5.063,-5.074,-5.0797,-5.096,-5.0996,-5.1023,-5.1085,-5.1079,-5.1152,-5.1182,-5.1226,-5.1299,-5.1404,-5.1475,-5.1575,-5.1774,-5.1793,-5.1865,-5.1889,-5.1909,-5.1931,-5.2041,-5.2075,-5.1714,-5.1713,-5.1713,0,0,-5.0587,-5.066,-5.0634,-5.0824,-5.0894,-5.0963,-5.1062,-5.1032,-5.1124,-5.1111,-5.1107,-5.1126,-5.1299,-5.1335,-5.124,-5.1541,-5.1443,-5.1466,-5.1512,-5.1543,-5.1566,-5.1556,-5.1148,0,0,0,0,0,-5.0489,-5.065,-5.0626,-5.066,-5.0833,-5.0976,-5.0998,-5.0999,-5.093,-5.1008,-5.104,-5.0998,-5.1283,-5.1199,-5.1233,-5.1341,-5.1624,-5.164,-5.1655,-5.1761,-5.1793,-5.182,0,0,0,0,0,0,-5.0503,-5.0544,-5.0622,-5.0697,-5.0736,-5.097,-5.0854,-5.0858,-5.0921,-5.0911,-5.0993,-5.1001,-5.1004,-5.1181,-5.1212,-5.1314,-5.1137,-5.163,-5.1643,-5.1656,-5.1772,-5.1798,-5.182,0,0,0,0,0,-5.0513,-5.0547,-5.0824,-5.0695,-5.0729,-5.0768,-5.0847,-5.085,-5.0899,-5.0951,-5.0957,-5.0894,-5.1007,-5.1033,-5.1199,-5.13,-5.1116,-5.1128,-5.1639,-5.1649,-5.1659,-5.1784,0,0,0,0,0,0,-5.0521,-5.0551,-5.0831,-5.0841,-5.0634,-5.0755,-5.0774,-5.0844,-5.0935,-5.0943,-5.0851,-5.0841,-5.1011,-5.1031,-5.1051,-5.1296,-5.1099,-5.111,-5.1118,-5.1647,-5.1655,-5.1663,0,0,0,0,0,0,-5.0533,-5.056,-5.0836,-5.0759,-5.0761,-5.0743,-5.076,-5.09,-5.0937,-5.083,-5.0825,-5.0846,-5.0981,-5.103,-5.1045,-5.1265,-5.1085,-5.1096,-5.1104,-5.1109,-5.1654,-5.166,0,0,0,0,0,0,-5.0544,-5.0568,-5.0757,-5.0758,-5.0759,-5.0875,-5.0867,-5.1044,-5.087,-5.0827,-5.0855,-5.0848,-5.0982,-5.0997,-5.1042,-5.1255,-5.1263,-5.1086,-5.1093,-5.1099,-5.1102,0,0,0,0,0,0,0,-5.0554,-5.0397,-5.0769,-5.0757,-5.0757,-5.0936,-5.0939,-5.0942,-5.0869,-5.0862,-5.0856,-5.0851,-5.1021,-5.1033,-5.1046,-5.1247,0,0,-5.1084,-5.109,0,0,0,0,0,0,0,0,-5.0387,-5.0394,-5.077,-5.0772,-5.0774,-5.0937,-5.0939,-5.0941,-5.0868,-5.0863,-5.0858,-5.0853,-5.1024,-5.1034,-5.1044,0,0,0,0,0,0,0,0,0,0,0,0,0,0,0,-5.077,-5.0772,0,-5.0937,-5.0939,-5.0941,-5.0867,-5.0863,-5.0859,-5.0855,-5.1027,-5.1035,-5.1044,0,0,0,0,0,0,0,0,0,0,0,0,0,0,0,0,0,0,0,0,0,0,0,0,0,0,0,0,0,0,0,0,0,0,0,0,0,0,0,0,0,0,0,0,0,0,0,0,0,0,0,0,0,0,0,0,0,0,0,0,0,0,0,0,0,0,0,0,0]}],[{"header":{"parameterUnit":"kt","parameterCategory":2,"dx":1,"dy":1,"la1":30.253999710083008,"la2":30.299108505249023,"lo1":-89.0895004272461,"lo2":-89.04439544677734,"nx":28,"ny":28,"refTime":"2022-09-27T15:00:00:Z","depth":0,"parameterNumber":2,"parameterNumberName":"V-component_of_WINDS"},"data":[-16.044,-16.0667,-16.0675,-16.0935,-16.0985,-16.1163,-16.1227,-16.1311,-16.1377,-16.1586,-16.1705,-16.173,-16.1794,-16.1934,-16.2061,-16.2067,-16.2121,-16.2198,-16.2193,-16.1846,-16.1798,-16.1753,-16.1701,-16.221,-16.221,-16.2551,-16.2554,-16.2557,-16.0188,-16.0241,-16.0381,-16.0521,-16.064,-16.057,-16.0672,-16.0775,-16.0934,-16.1017,-16.1135,-16.1317,-16.1459,-16.1496,-16.1632,-16.1733,-16.1705,-16.1769,-16.1762,-16.1773,-16.1403,-16.1348,-16.179,-16.179,-16.179,-16.1789,-16.1789,-16.1789,-15.973,-15.9866,-15.9955,-16.0106,-16.0177,-16.0269,-16.0398,-16.0427,-16.056,-16.0707,-16.0683,-16.0861,-16.094,-16.1103,-16.1157,-16.1292,-16.1221,-16.129,-16.1308,-16.1326,-16.1347,-16.0857,-16.1315,-16.1313,-16.1312,-16.1311,-16.131,0,-15.9397,-15.9394,-15.9528,-15.9665,-15.9774,-15.9879,-15.9975,-16.0054,-16.004,-16.015,-16.0309,-16.04,-16.0577,-16.0724,-16.0849,-16.089,-16.0823,-16.0816,-16.0864,-16.088,-16.0878,-16.0883,-16.028,-16.0802,-16.0798,-16.0794,-16.0792,-16.079,-15.8937,-15.9094,-15.9187,-15.9281,-15.9334,-15.9484,-15.9573,-15.955,-15.9645,-15.9755,-15.9873,-16.002,-16.0137,-16.0385,-16.041,-16.054,-16.0509,-16.0708,-16.0527,-16.0537,-16.0513,-16.0504,-16.052,-16.0744,-16.075,-16.0755,-16.0759,0,-15.8677,-15.8685,-15.8929,-15.9004,-15.9027,-15.9192,-15.9253,-15.9385,-15.9396,-15.9578,-15.9619,-15.9636,-15.9789,-15.9782,-15.9953,-15.9944,-16.0209,-16.0174,-16.0182,-16.0175,-16.0354,-16.0337,-16.0933,-16.1009,-16.0481,-16.0486,-16.049,0,-15.8287,-15.8493,-15.8492,-15.8633,-15.886,-15.8831,-15.9055,-15.9087,-15.9157,-15.9299,-15.9224,-15.9359,-15.9328,-15.9461,-15.9448,-15.9662,-15.9694,-15.97,-15.9694,-15.9708,-15.9707,-15.9755,-15.9731,-15.9673,-15.967,-15.9667,-15.9665,0,-15.788,-15.8119,-15.8348,-15.8403,-15.8502,-15.8609,-15.8654,-15.8731,-15.8817,-15.8926,-15.8981,-15.911,-15.918,-15.9279,-15.9262,-15.914,-15.9523,-15.9352,-15.9529,-15.953,-15.9615,-15.961,-16.0139,-15.9661,-15.966,-15.9659,-15.9658,0,-15.7566,-15.7683,-15.8013,-15.8093,-15.8156,-15.8305,-15.8433,-15.8559,-15.8644,-15.8647,-15.8732,-15.8679,-15.8866,-15.8697,-15.8953,-15.8799,-15.8872,-15.8894,-15.8906,-15.8923,-15.8733,-15.9034,-15.9538,-15.9591,-15.8938,-15.8932,-15.8926,0,-15.7099,-15.7434,-15.7412,-15.7725,-15.7878,-15.7785,-15.7949,-15.8027,-15.8045,-15.8174,-15.819,-15.8337,-15.8209,-15.8253,-15.8381,-15.8403,-15.8602,-15.8375,-15.8558,-15.8565,-15.8541,-15.9004,-15.9082,-15.9429,-15.8849,-15.8857,-15.8863,0,-15.6738,-15.6858,-15.6915,-15.6977,-15.7078,-15.7204,-15.7393,-15.7533,-15.7621,-15.7716,-15.7872,-15.8076,-15.7988,-15.8062,-15.8031,-15.8165,-15.8466,-15.8051,-15.8052,-15.8127,-15.8809,-15.8883,-15.8941,-15.8415,-15.8425,-15.8432,-15.8802,0,-15.6263,-15.643,-15.6585,-15.6723,-15.682,-15.7014,-15.701,-15.7111,-15.7074,-15.7087,-15.7315,-15.7373,-15.7512,-15.7575,-15.7538,-15.7847,-15.7794,-15.7697,-15.7531,-15.7835,-15.7957,-15.8006,-15.735,-15.7345,-15.7341,-15.7338,0,0,-15.5815,-15.6054,-15.6023,-15.6207,-15.6286,-15.6186,-15.6394,-15.6458,-15.6591,-15.6647,-15.6555,-15.6852,-15.6903,-15.718,-15.7274,-15.7329,-15.7383,-15.7277,-15.769,-15.7729,-15.7766,-15.7896,-15.7948,-15.733,-15.7329,-15.7327,-15.7326,0,-15.5641,-15.5702,-15.591,-15.5977,-15.6075,-15.6079,-15.6129,-15.6206,-15.6223,-15.6447,-15.6357,-15.6491,-15.6729,-15.6795,-15.686,-15.7244,-15.7167,-15.7286,-15.7496,-15.7648,-15.7693,-15.7733,-15.787,-15.792,-15.7316,-15.7317,-15.7317,0,-15.5285,-15.5345,-15.5444,-15.5622,-15.5684,-15.5842,-15.5668,-15.5842,-15.5958,-15.5833,-15.6056,-15.6087,-15.6175,-15.6437,-15.6553,-15.6472,-15.6971,-15.6811,-15.6837,-15.6849,-15.6996,-15.705,-15.7098,-15.6464,-15.6461,-15.6459,0,0,-15.5135,-15.529,-15.5344,-15.5584,-15.5629,-15.5638,-15.572,-15.5692,-15.5775,-15.5809,-15.5847,-15.5929,-15.6066,-15.6156,-15.6284,-15.6573,-15.6588,-15.6706,-15.6746,-15.6779,-15.681,-15.6965,-15.7018,-15.6448,-15.6448,-15.6447,0,0,-15.5061,-15.5135,-15.5084,-15.5362,-15.5447,-15.5513,-15.5659,-15.5596,-15.5711,-15.5687,-15.5643,-15.5663,-15.5907,-15.594,-15.5794,-15.6224,-15.606,-15.6095,-15.6194,-15.6245,-15.6284,-15.6271,-15.5621,0,0,0,0,0,-15.4881,-15.5126,-15.5079,-15.5125,-15.5347,-15.554,-15.5567,-15.5539,-15.5424,-15.5541,-15.5562,-15.5474,-15.5853,-15.5723,-15.5766,-15.5929,-15.6306,-15.6331,-15.6355,-15.6551,-15.6604,-15.6649,0,0,0,0,0,0,-15.4899,-15.4956,-15.5073,-15.515,-15.5199,-15.5531,-15.533,-15.5329,-15.5411,-15.5392,-15.5473,-15.5477,-15.5453,-15.5698,-15.5738,-15.5893,-15.5607,-15.6316,-15.6337,-15.6356,-15.6569,-15.6612,-15.665,0,0,0,0,0,-15.4913,-15.4958,-15.5322,-15.5146,-15.5189,-15.521,-15.5321,-15.5318,-15.5381,-15.5415,-15.5416,-15.5352,-15.5459,-15.549,-15.5721,-15.5876,-15.5579,-15.5594,-15.633,-15.6347,-15.6362,-15.659,0,0,0,0,0,0,-15.4923,-15.4956,-15.5329,-15.5341,-15.5052,-15.5191,-15.5212,-15.5309,-15.5397,-15.5402,-15.529,-15.5274,-15.5466,-15.5489,-15.5514,-15.5872,-15.5556,-15.5572,-15.5581,-15.6343,-15.6356,-15.6367,0,0,0,0,0,0,-15.4931,-15.4967,-15.5335,-15.5218,-15.5216,-15.5173,-15.5192,-15.5383,-15.54,-15.5268,-15.5257,-15.5282,-15.5426,-15.5489,-15.5508,-15.5806,-15.5539,-15.5553,-15.5564,-15.557,-15.6353,-15.6364,0,0,0,0,0,0,-15.4946,-15.4976,-15.5215,-15.5213,-15.5211,-15.5341,-15.534,-15.5567,-15.5304,-15.5265,-15.5279,-15.5267,-15.5429,-15.5447,-15.5505,-15.5796,-15.5804,-15.5539,-15.5549,-15.5556,-15.5561,0,0,0,0,0,0,0,-15.4957,-15.4761,-15.526,-15.521,-15.5207,-15.5451,-15.5454,-15.5457,-15.5301,-15.5291,-15.5281,-15.5272,-15.5455,-15.5471,-15.5487,-15.5787,0,0,-15.5538,-15.5545,0,0,0,0,0,0,0,0,-15.4747,-15.4758,-15.526,-15.5263,-15.5265,-15.5451,-15.5454,-15.5457,-15.5299,-15.5291,-15.5283,-15.5276,-15.5459,-15.5472,-15.5485,0,0,0,0,0,0,0,0,0,0,0,0,0,0,0,-15.5261,-15.5263,0,-15.5452,-15.5454,-15.5456,-15.5298,-15.5292,-15.5285,-15.5279,-15.5463,-15.5473,-15.5484,0,0,0,0,0,0,0,0,0,0,0,0,0,0,0,0,0,0,0,0,0,0,0,0,0,0,0,0,0,0,0,0,0,0,0,0,0,0,0,0,0,0,0,0,0,0,0,0,0,0,0,0,0,0,0,0,0,0,0,0,0,0,0,0,0,0,0,0,0]}]]]